Regional Weather Roundup
Issued by NWS

Home | Current Version | Previous Version | Text Only | Print | Product List | Glossary Off
Versions: 1 2 3 4 5 6 7 8 9 10 11 12 13 14 15 16 17 18 19 20 21 22 23 24 25 26 27 28 29 30 31 32 33 34 35 36 37 38 39 40 41 42 43 44 45 46 47 48 49 50

000
ASUS43 KIND 291709
RWRIN

WEATHER ROUNDUP FOR INDIANA
NATIONAL WEATHER SERVICE INDIANAPOLIS IN
100 PM EDT SAT APR 29 2017

NOTE: "FAIR" INDICATES FEW OR NO CLOUDS BELOW 12,000 FEET WITH NO
SIGNIFICANT WEATHER AND/OR OBSTRUCTIONS TO VISIBILITY.

* - STATION DOES NOT REPORT WEATHER SUCH AS PRECIPITATION OR FOG.

+ - STATION NOT QUALITY CONTROLLED BY THE NATIONAL WEATHER SERVICE.
    USE DATA WITH CAUTION...ESPECIALLY DEWPOINT AND RELATIVE
    HUMIDITY OBSERVATIONS.

INZ001>003-010>013-019-020-291800-
NORTHWEST INDIANA

CITY           SKY/WX    TMP DP  RH WIND       PRES   REMARKS
GARY /AIRPORT/ LGT RAIN  45  39  81 N14G33    30.20R
KNOX *+        CLOUDY    50  34  53 NE8       30.15S
LA PORTE +     DRIZZLE   53  46  77 NE9       30.16S
MICHIGAN CITY+ CLOUDY    46  41  81 NE7       30.17S
MONTICELLO +   RAIN      51  49  93 NE12      30.10R
RENSSELAER +   LGT RAIN  50  46  87 NE12      30.13R
VALPARAISO     LGT RAIN  48  44  86 N5        30.17R

$$

LMZ046-743>745-291800-
SOUTHERN LAKE MICHIGAN

STATION/POSITION TIME  TEMP    WIND        PRES    WAVE
                       AIR SEA DIR/SP/G            HT
                 (UTC) (F)     (DEG/KT/KT) (MB)    (FT)
BURNS HARBOR     1640   45      40/ 20/ 25 1021.3R
MICHIGAN CITY    1640   44      20/ 20/ 23   N/A
5NW MICH CITY    1700   44 46                N/A     6

$$

INZ004-005-014>016-021>024-291800-
NORTH CENTRAL INDIANA

CITY           SKY/WX    TMP DP  RH WIND       PRES   REMARKS
ELKHART        LGT RAIN  52  45  76 NE10      30.18R
GOSHEN         LGT RAIN  50  44  80 E9        30.17R
LOGANSPORT +   LGT RAIN  52  52 100 NE8       30.12R
PERU/GRISSOM   LGT RAIN  55  55 100 E8        30.10R FOG
ROCHESTER +    LGT RAIN  52  50  93 N8        30.14S
SOUTH BEND     LGT RAIN  52  46  80 E10       30.17R
WARSAW +       RAIN      50  46  87 NE9       30.16R

$$

INZ006>009-017-018-025>027-291800-
NORTHEAST INDIANA

CITY           SKY/WX    TMP DP  RH WIND       PRES   REMARKS
ANGOLA *+      CLOUDY    46  36  66 E9        30.17R
AUBURN +       CLOUDY    50  46  87 NE13      30.16R FOG
FORT WAYNE     LGT RAIN  52  49  89 NE18      30.12S
HUNTINGTON +   LGT RAIN N/A N/A N/A NE21      30.03F
KENDALLVILLE + DRIZZLE   47  46  95 NE9G16    30.17R

$$

INZ028-029-035-036-043>045-051>053-291800-
WEST CENTRAL INDIANA

CITY           SKY/WX    TMP DP  RH WIND       PRES   REMARKS
CRAWFORDSVL +  CLOUDY    57  57 100 E5        30.07R
GREENCASTLE +  CLOUDY    61  61 100 SE5       30.06S FOG
LAFAYETTE      LGT RAIN  54  54 100 E8        30.10R FOG
TERRE HAUTE    CLOUDY    64  61  90 E6        30.03F

$$

INZ030>032-037>040-046>048-054>057-064-065-291800-
CENTRAL INDIANA

CITY           SKY/WX    TMP DP  RH WIND       PRES   REMARKS
CP ATTERBURY + CLOUDY    68  63  83 SE7       30.06F
COLUMBUS       PTSUNNY   68  63  83 SE7       30.07S
FISHERS *+     CLOUDY    59  59 100 E6        30.06
FRANKFORT +    LGT RAIN  59  57  94 E8        30.08R
GREENWOOD *+   CLOUDY    65  64  97 SE5       30.06F
INDIANAPOLIS   CLOUDY    61  60  97 E8        30.04F
-EAGLE CREEK   CLOUDY    61  58  90 E9        30.05F
KOKOMO +       LGT RAIN  57  55  93 E5        30.12R
MARION +       CLOUDY    55  55 100 E10       30.08R FOG
MT COMFORT *+  CLOUDY    59  59 100 E5        30.07F
SHELBYVILLE    PTSUNNY   71  63  75 SE14      30.05F
ZIONSVILLE +   LGT RAIN  58  57  99 E8        30.07R

$$

INZ033-034-041-042-049-050-058-059-291800-
EAST CENTRAL INDIANA

CITY           SKY/WX    TMP DP  RH WIND       PRES   REMARKS
MUNCIE         LGT RAIN  59  56  89 E7        30.08R
RICHMOND +     RAIN      63  63 100 SE10      30.09F

$$

INZ060-061-067>069-081>083-085>088-291800-
SOUTHWEST INDIANA

CITY           SKY/WX    TMP DP  RH WIND       PRES   REMARKS
EVANSVILLE     CLOUDY    75  64  68 E10G20    30.00F
WASHINGTON +   MOSUNNY   73  65  76 SE15      30.00F

$$

INZ062-063-066-070>080-084-089>092-291800-
SOUTH CENTRAL AND SOUTHEAST INDIANA

CITY           SKY/WX    TMP DP  RH WIND       PRES   REMARKS
BLOOMINGTON    PTSUNNY   68  63  84 SE8       30.04F
MADISON *+     MOSUNNY   70  64  83 E12       30.09F
NORTH VERNON + PTSUNNY   68  64  88 E6        30.07F
SEYMOUR +      PTSUNNY  N/A N/A N/A SE9       30.06F

$$




USA.gov is the U.S. government's official web portal to all federal, state and local government web resources and services.